Hourly Weather Roundup
Issued by NWS Central Illinois

Home | Current Version | Previous Version | Text Only | Print | Product List | Glossary On
Versions: 1 2 3 4 5 6 7 8 9 10 11 12 13 14 15 16 17 18 19 20 21 22 23 24 25 26 27 28 29 30 31 32 33 34 35 36 37 38 39 40 41 42 43 44 45 46 47 48 49 50
045
NZUS43 KILX 241110
HWRILX

AREA WEATHER ROUNDUP
NATIONAL WEATHER SERVICE, LINCOLN IL
600 AM CDT SUN JUL 24 2016


CITY           SKY/WX    TMP DP  RH WIND       PRES   REMARKS
BLOOMINGTON    CLEAR     76  74  93 S9        29.95  FOG
CHAMPAIGN      CLOUDY    76  74  93 S6        29.96R FOG
DANVILLE       CLOUDY    72  72  99 CALM      29.95R FOG
DECATUR        CLOUDY    77  74  90 S6        29.95R FOG
EFFINGHAM      CLOUDY    73  73 100 CALM      29.98R FOG
FLORA          FOG       76  75  96 NE3       29.97R VSB 1/2
GALESBURG      CLEAR     77  74  92 S7        29.89S
JACKSONVILLE   PTCLDY    77  75  92 S6        29.91S
LACON          MOCLDY    77  74  90 S3        29.90R
LAWRENCEVILLE  PTCLDY    76  75  97 E3        29.97R FOG
LITCHFIELD     PTCLDY    74  73  94 SE5       29.95R FOG
$$


CITY           SKY/WX    TMP DP  RH WIND       PRES   REMARKS
LINCOLN        CLOUDY    77  76  98 S5        29.92F FOG
MACOMB         CLEAR     76  75  95 S6        29.91F
MATTOON        CLOUDY    75  73  93 S6        29.96R FOG
MT CARMEL AP     N/A     74  73  96 E5        29.96S FOG
OLNEY-NOBLE AP LGT RAIN  73  73 100 CALM      29.97R
PARIS          FOG       73  73 100 CALM      29.98R VSB 1/2
PEORIA         CLEAR     77  76  96 S7        29.91S
PONTIAC        CLEAR     74  74 100 SE6       29.94S FOG
RANTOUL        NOT AVBL
ROBINSON       FOG       71  71 100 CALM      29.97S VSB<1/4
SPRINGFIELD    MOCLDY    79  75  87 S6        29.92S HX  83
TAYLORVILLE    MOCLDY    75  75  98 NW3       29.94F FOG
$$

...REGIONAL REPORTS...


CITY           SKY/WX    TMP DP  RH WIND       PRES   REMARKS
CHICAGO O`HARE PTCLDY    72  69  90 S12       29.90F
KANKAKEE       NOT AVBL
MOLINE         CLEAR     80  75  84 S9        29.85S HX  85
MOUNT STERLING MOCLDY    75  74  96 S5        29.90S
MOUNT VERNON   CLEAR     73  70  88 CALM      29.96R
PITTSFIELD     MOCLDY    78  76  93 S5        29.92S HX  80
QUINCY         PTCLDY    78  75  90 S8        29.89F HX  81
ROCKFORD       MOCLDY    75  68  79 S6        29.88F
$$


CITY           SKY/WX    TMP DP  RH WIND       PRES   REMARKS
BURLINGTON     CLEAR     77  76  96 S8        29.87F
CEDAR RAPIDS   PTCLDY    78  78 100 S9        29.83S HX  81
DES MOINES     CLOUDY    79  75  87 S3        29.82S HX  83
KIRKSVILLE     LGT RAIN  78  75  90 S7        29.90S HX  81
OTTUMWA        CLEAR     78  74  87 S9        29.84F HX  81
ST LOUIS       MOCLDY    81  74  79 S5        29.93R HX  86
$$


CITY           SKY/WX    TMP DP  RH WIND       PRES   REMARKS
TERRE HAUTE    PTCLDY    75  72  90 CALM      29.97S FOG
EVANSVILLE     CLEAR     76  75  97 CALM      29.97R FOG
INDIANAPOLIS   CLOUDY    78  71  79 E9        29.99S HX  80
LAFAYETTE      CLOUDY    70  69  97 E3        29.97R
MADISON        CLOUDY    74  71  91 S8        29.83F
MILWAUKEE      CLOUDY    73  69  87 SW9       29.86R
$$






USA.gov is the U.S. government's official web portal to all federal, state and local government web resources and services.